Regional Weather Roundup
Issued by NWS

Home | Current Version | Previous Version | Text Only | Print | Product List | Glossary Off
Versions: 1 2 3 4 5 6 7 8 9 10 11 12 13 14 15 16 17 18 19 20 21 22 23 24 25 26 27 28 29 30 31 32 33 34 35 36 37 38 39 40 41 42 43 44 45 46 47 48 49 50

000
ASUS43 KFSD 301010
RWRSD

WEATHER ROUNDUP FOR SOUTH DAKOTA
NATIONAL WEATHER SERVICE SIOUX FALLS SD
500 AM CDT SAT AUG 30 2014

NOTE: "FAIR" INDICATES FEW OR NO CLOUDS BELOW 12,000 FEET WITH NO
SIGNIFICANT WEATHER AND/OR OBSTRUCTIONS TO VISIBILITY.


SDZ001>005-009-010-012>017-301100-
NORTHWEST AND NORTH CENTRAL SOUTH DAKOTA

CITY           SKY/WX    TMP DP  RH WIND       PRES   REMARKS
BUFFALO          N/A     53  51  93 SE8       29.89F
FAITH            N/A     54  52  93 SE10      29.97F
MOBRIDGE       CLEAR     51  51 100 NE7       29.96F
$$

SDZ012>016-024>037-041>051-057-063-072>074-301100-
SOUTHWEST AND SOUTH CENTRAL SOUTH DAKOTA

CITY           SKY/WX    TMP DP  RH WIND       PRES   REMARKS
RAPID CTY ARPT CLEAR     53  50  89 S5        29.98F
PIERRE         PTCLDY    53  53 100 N8        29.96S
CUSTER         CLEAR     47  45  93 CALM      30.07F
ELLSWORTH AFB  CLEAR     56  53  90 S6        29.97F
PHILIP         CLEAR     52  51  97 E5        29.97F
PINE RIDGE     PTCLDY    49  48  97 CALM      29.99F
WINNER         FOG       55  54  96 W6        29.99R VSB 1/2
$$

SDZ004>011-016>023-039-040-301100-
NORTHEAST SOUTH DAKOTA

CITY           SKY/WX    TMP DP  RH WIND       PRES   REMARKS
ABERDEEN       CLOUDY    59  55  87 N10       29.94R
WATERTOWN      CLOUDY    59  57  93 N10       29.90R
SISSETON         N/A     60  59  96 N9        29.89R
$$

SDZ017-020-022-023-036>040-048>070-301100-
SOUTHEAST SOUTH DAKOTA

CITY           SKY/WX    TMP DP  RH WIND       PRES   REMARKS
SIOUX FALLS    CLOUDY    65  63  93 NW10      29.89R
HURON          CLOUDY    61  57  87 NW12      29.92S
CHAMBERLAIN    CLEAR     56  55  95 W3        29.97R
MITCHELL       CLOUDY    61  60  97 NW8       29.93S
YANKTON        CLOUDY    63  61  94 NW14      29.91S
$$

ABBREVIATIONS USED IN REMARKS
   TC - TEMPERATURE IN CELSIUS
  WCI - WIND CHILL INDEX
   HX - HEAT INDEX
  VSB - VISIBILITY




USA.gov is the U.S. government's official web portal to all federal, state and local government web resources and services.